When you browse on this site, cookies collect data to enhance your experience and personalize the content and advertising you see.
Visit our Privacy Policy to learn more. By continuing to use the site, you agree to this use of cookies and data.
  • în România
  • Lista ţărilor
  • Pe 7 zile
  • Temperatura apei
  • Hartă satelitară
  • Meteo pe hartă
  • Widget-uri
  • user-avatar
    Intrare

    Meteo pe oră la Barcelona

    Astăzi, 12 Decembrie, Miercuri

    Timp Temperatura Precipitaţii Vânt Presiune Umiditate
    00:00 +26°C° 0.2 mm 4 m/s 761 mmHg 86%
    01:00 +26°C° 0.2 mm 3 m/s 761 mmHg 86%
    02:00 +26°C° 0.2 mm 3 m/s 761 mmHg 87%
    03:00 +25°C° 0.2 mm 3 m/s 760 mmHg 87%
    04:00 +25°C° 0.2 mm 2 m/s 760 mmHg 87%
    05:00 +25°C° 0.2 mm 2 m/s 760 mmHg 88%
    06:00 +26°C° 0 mm 2 m/s 760 mmHg 82%
    07:00 +27°C° 0 mm 2 m/s 761 mmHg 77%
    08:00 +28°C° 0 mm 2 m/s 761 mmHg 72%
    09:00 +31°C° 0 mm 2 m/s 761 mmHg 63%
    10:00 +34°C° 0 mm 2 m/s 761 mmHg 55%
    11:00 +36°C° 0 mm 2 m/s 761 mmHg 47%
    12:00 +36°C° 0 mm 2 m/s 760 mmHg 47%
    13:00 +36°C° 0 mm 2 m/s 760 mmHg 48%
    14:00 +36°C° 0 mm 3 m/s 759 mmHg 48%
    15:00 +35°C° 0 mm 3 m/s 758 mmHg 52%
    16:00 +34°C° 0 mm 4 m/s 758 mmHg 57%
    17:00 +33°C° 0 mm 4 m/s 757 mmHg 61%
    18:00 +32°C° 0 mm 4 m/s 758 mmHg 67%
    19:00 +29°C° 0 mm 4 m/s 758 mmHg 73%
    20:00 +28°C° 0 mm 4 m/s 759 mmHg 79%
    21:00 +28°C° 0 mm 4 m/s 759 mmHg 80%
    22:00 +27°C° 0 mm 4 m/s 760 mmHg 80%
    23:00 +27°C° 0 mm 4 m/s 760 mmHg 81%

    Mâine, 13 Decembrie, Joi

    Timp Temperatura Precipitaţii Vânt Presiune Umiditate
    00:00 +26°C° 0 mm 4 m/s 760 mmHg 82%
    01:00 +26°C° 0 mm 4 m/s 760 mmHg 84%
    02:00 +25°C° 0 mm 4 m/s 759 mmHg 85%
    03:00 +25°C° 0 mm 4 m/s 759 mmHg 87%
    04:00 +25°C° 0 mm 3 m/s 759 mmHg 88%
    05:00 +25°C° 0 mm 3 m/s 759 mmHg 90%
    06:00 +26°C° 0 mm 3 m/s 760 mmHg 84%
    07:00 +27°C° 0 mm 3 m/s 760 mmHg 78%
    08:00 +28°C° 0 mm 3 m/s 760 mmHg 72%
    09:00 +31°C° 0 mm 3 m/s 761 mmHg 63%
    10:00 +34°C° 0 mm 3 m/s 761 mmHg 53%
    11:00 +37°C° 0 mm 3 m/s 761 mmHg 43%
    12:00 +36°C° 0 mm 3 m/s 760 mmHg 45%
    13:00 +36°C° 0 mm 4 m/s 759 mmHg 46%
    14:00 +36°C° 0 mm 4 m/s 758 mmHg 48%
    15:00 +35°C° 0.1 mm 4 m/s 758 mmHg 53%
    16:00 +34°C° 0.1 mm 5 m/s 758 mmHg 58%
    17:00 +33°C° 0.1 mm 5 m/s 757 mmHg 63%
    18:00 +30°C° 0 mm 5 m/s 758 mmHg 70%
    19:00 +29°C° 0 mm 5 m/s 758 mmHg 76%
    20:00 +27°C° 0 mm 5 m/s 759 mmHg 82%
    21:00 +27°C° 0.1 mm 5 m/s 759 mmHg 83%
    22:00 +27°C° 0.1 mm 5 m/s 760 mmHg 85%
    23:00 +26°C° 0.1 mm 4 m/s 760 mmHg 87%

    Poimâine, 14 Decembrie, Vineri

    Timp Temperatura Precipitaţii Vânt Presiune Umiditate
    00:00 +26°C° 0.1 mm 4 m/s 760 mmHg 87%
    01:00 +26°C° 0.1 mm 4 m/s 760 mmHg 87%
    02:00 +25°C° 0.1 mm 4 m/s 759 mmHg 88%
    03:00 +25°C° 0 mm 4 m/s 759 mmHg 88%
    04:00 +25°C° 0 mm 3 m/s 759 mmHg 88%
    05:00 +24°C° 0 mm 3 m/s 759 mmHg 89%
    06:00 +25°C° 0 mm 3 m/s 760 mmHg 84%
    07:00 +26°C° 0 mm 3 m/s 760 mmHg 79%
    08:00 +28°C° 0 mm 3 m/s 761 mmHg 75%
    09:00 +30°C° 0 mm 3 m/s 761 mmHg 64%
    10:00 +34°C° 0 mm 3 m/s 761 mmHg 54%
    11:00 +36°C° 0 mm 3 m/s 761 mmHg 44%
    12:00 +36°C° 0 mm 4 m/s 761 mmHg 47%
    13:00 +35°C° 0 mm 4 m/s 760 mmHg 50%
    14:00 +34°C° 0 mm 5 m/s 759 mmHg 53%
    15:00 +33°C° 0.2 mm 5 m/s 759 mmHg 56%
    16:00 +33°C° 0.2 mm 5 m/s 759 mmHg 58%
    17:00 +32°C° 0.2 mm 5 m/s 758 mmHg 61%
    18:00 +30°C° 0 mm 5 m/s 759 mmHg 65%
    19:00 +29°C° 0 mm 5 m/s 759 mmHg 69%
    20:00 +27°C° 0 mm 5 m/s 760 mmHg 73%
    21:00 +27°C° 0 mm 4 m/s 760 mmHg 75%
    22:00 +26°C° 0 mm 4 m/s 760 mmHg 77%
    23:00 +26°C° 0 mm 4 m/s 761 mmHg 79%

    15 Decembrie, Sâmbătă

    Timp Temperatura Precipitaţii Vânt Presiune Umiditate
    00:00 +26°C° 0 mm 3 m/s 760 mmHg 80%
    01:00 +25°C° 0 mm 3 m/s 760 mmHg 82%
    02:00 +25°C° 0 mm 3 m/s 760 mmHg 83%
    03:00 +24°C° 0 mm 3 m/s 760 mmHg 84%
    04:00 +24°C° 0 mm 3 m/s 760 mmHg 85%
    05:00 +24°C° 0 mm 2 m/s 760 mmHg 86%
    06:00 +25°C° 0 mm 2 m/s 761 mmHg 81%
    07:00 +26°C° 0 mm 2 m/s 761 mmHg 75%
    08:00 +28°C° 0 mm 2 m/s 762 mmHg 70%
    09:00 +30°C° 0 mm 2 m/s 762 mmHg 61%
    10:00 +34°C° 0 mm 2 m/s 762 mmHg 53%
    11:00 +36°C° 0 mm 2 m/s 762 mmHg 44%
    12:00 +36°C° 0 mm 3 m/s 761 mmHg 45%
    13:00 +35°C° 0 mm 3 m/s 760 mmHg 45%
    14:00 +35°C° 0 mm 4 m/s 759 mmHg 46%
    15:00 +34°C° 0 mm 4 m/s 759 mmHg 50%
    16:00 +33°C° 0 mm 4 m/s 759 mmHg 54%
    17:00 +33°C° 0 mm 5 m/s 759 mmHg 57%
    18:00 +30°C° 0 mm 5 m/s 759 mmHg 62%
    19:00 +29°C° 0 mm 5 m/s 760 mmHg 67%
    20:00 +27°C° 0 mm 5 m/s 760 mmHg 72%
    21:00 +27°C° 0 mm 5 m/s 761 mmHg 73%
    22:00 +26°C° 0 mm 5 m/s 761 mmHg 75%
    23:00 +26°C° 0 mm 5 m/s 761 mmHg 77%

    16 Decembrie, Duminică

    Timp Temperatura Precipitaţii Vânt Presiune Umiditate
    00:00 +25°C° 0 mm 4 m/s 761 mmHg 79%
    01:00 +23°C° 0 mm 4 m/s 761 mmHg 82%
    02:00 +23°C° 0 mm 4 m/s 760 mmHg 84%
    03:00 +22°C° 0 mm 3 m/s 761 mmHg 86%
    04:00 +22°C° 0 mm 3 m/s 761 mmHg 88%
    05:00 +23°C° 0 mm 2 m/s 761 mmHg 90%
    06:00 +24°C° 0 mm 2 m/s 761 mmHg 82%
    07:00 +25°C° 0 mm 2 m/s 762 mmHg 75%
    08:00 +26°C° 0 mm 2 m/s 762 mmHg 68%
    09:00 +29°C° 0 mm 1 m/s 762 mmHg 58%
    10:00 +32°C° 0 mm 1 m/s 762 mmHg 48%
    11:00 +35°C° 0 mm 1 m/s 762 mmHg 37%
    12:00 +36°C° 0 mm 2 m/s 761 mmHg 38%
    13:00 +35°C° 0 mm 2 m/s 760 mmHg 39%
    14:00 +35°C° 0 mm 3 m/s 759 mmHg 39%
    15:00 +34°C° 0 mm 3 m/s 759 mmHg 45%
    16:00 +33°C° 0 mm 4 m/s 759 mmHg 51%
    17:00 +32°C° 0 mm 4 m/s 758 mmHg 57%
    18:00 +29°C° 0 mm 4 m/s 759 mmHg 64%
    19:00 +28°C° 0 mm 5 m/s 759 mmHg 71%
    20:00 +27°C° 0 mm 5 m/s 760 mmHg 78%
    21:00 +26°C° 0 mm 5 m/s 760 mmHg 80%
    22:00 +26°C° 0 mm 4 m/s 760 mmHg 81%
    23:00 +25°C° 0 mm 4 m/s 760 mmHg 83%

    17 Decembrie, Luni

    Timp Temperatura Precipitaţii Vânt Presiune Umiditate
    00:00 +25°C° 0 mm 4 m/s 760 mmHg 84%
    01:00 +23°C° 0 mm 4 m/s 760 mmHg 85%
    02:00 +24°C° 0 mm 3 m/s 759 mmHg 86%
    03:00 +24°C° 0 mm 3 m/s 759 mmHg 86%
    04:00 +24°C° 0 mm 3 m/s 759 mmHg 87%
    05:00 +24°C° 0 mm 2 m/s 759 mmHg 88%
    06:00 +25°C° 0 mm 2 m/s 760 mmHg 83%
    07:00 +26°C° 0 mm 2 m/s 761 mmHg 78%
    08:00 +28°C° 0 mm 2 m/s 761 mmHg 73%
    09:00 +30°C° 0 mm 2 m/s 761 mmHg 64%
    10:00 +34°C° 0 mm 2 m/s 761 mmHg 56%
    11:00 +36°C° 0 mm 2 m/s 761 mmHg 48%
    12:00 +36°C° 0 mm 2 m/s 760 mmHg 48%
    13:00 +36°C° 0 mm 3 m/s 759 mmHg 48%
    14:00 +36°C° 0 mm 3 m/s 758 mmHg 49%
    15:00 +35°C° 0 mm 4 m/s 758 mmHg 53%
    16:00 +34°C° 0 mm 4 m/s 758 mmHg 58%
    17:00 +33°C° 0 mm 4 m/s 757 mmHg 62%
    18:00 +30°C° 0 mm 5 m/s 758 mmHg 68%
    19:00 +29°C° 0 mm 5 m/s 758 mmHg 74%
    20:00 +28°C° 0 mm 5 m/s 759 mmHg 79%
    21:00 +27°C° 0 mm 4 m/s 759 mmHg 81%
    22:00 +27°C° 0 mm 4 m/s 759 mmHg 83%
    23:00 +26°C° 0 mm 4 m/s 760 mmHg 84%
    Arată mai mult